Погода в Шевченкове

Украина / Днепропетровская область     48°10′50″N   36°13′03″E
темп.,
°C
ветер,
м/с
пор.,
м/с
влажн.,
%
обл.,
%
осадки,
мм/ч
давл.,
гПа
погр.,
м
27 ноября, сб
сб2723:00+2юв6168898 0.0 1015349
02:00+4ююв71786100 0.0 1012456
05:00+6ююв91882100 0.0 1010737
08:00+5ююв91989100 1.8 1008674
11:00+8ююв101880100 1.7 1007746
14:00+9ююв71387100 1.7 1006532
17:00+10ююз51190100 0.0 1006343
20:00+8ю51294100 0.0 1007276
28 ноября, вс
вс2823:00+7ю511955 0.0 1007217
02:00+7ююз4109886 0.0 1008236
05:00+9юз479189 0.0 1008289
08:00+7ю349826 0.0 100991
11:00+12ю45770 0.0 1009356
14:00+14ю36660 0.0 1009549
17:00+10ююв4688100 0.0 100998
20:00+10ююв4993100 0.1 1009215
29 ноября, пн
пн2923:00+10юв61298100 4.3 1007537
02:00+11ююв61296100 5.8 1006562
05:00+11ю7139191 0.0 1004592
08:00+11ю71687100 0.0 1004622
11:00+12ю101992100 2.4 1001772
14:00+14ю11207493 2.8 997927
17:00+13ю1019781 0.6 995729
20:00+13ююз111983100 0.6 9941123
30 ноября, вт
вт3023:00+13юз91581100 0.8 994934
02:00+9зюз6118080 0.9 997551
05:00+6зюз6117384 0.0 999448
08:00+6зюз51170100 0.0 1000519
11:00+7зюз61051100 0.0 1002753
14:00+8зюз5944100 0.0 1000786
17:00+4зюз3957100 0.0 1000221
20:00+3з4960100 0.0 1000331
1 декабря, ср
ср123:00+2зсз61264100 0.0 1000773
02:00+1зсз51173100 0.0 1003848
05:000з6117842 0.0 1004569
08:00−1зюз61179100 0.0 1006492
11:00+2зюз610536 0.0 1007734
14:00+4юз7135490 0.0 10051334
17:00+3зюз6126493 0.0 1005886
20:00+2зюз6126373 0.0 1007662